Regional Weather Roundup
Issued by NWS

Home | Current Version | Previous Version | Graphics & Text | Print | Product List | Glossary On
Versions: 1 2 3 4 5 6 7 8 9 10 11 12 13 14 15 16 17 18 19 20 21 22 23 24 25 26 27 28 29 30 31 32 33 34 35 36 37 38 39 40 41 42 43 44 45 46 47 48 49 50
000
ASUS44 KMEG 230700
RWRTN
TENNESSEE HOURLY STATE WEATHER ROUNDUP
NATIONAL WEATHER SERVICE MEMPHIS TN
200 AM CDT MON APR 23 2018

TNZ002-004-019-021-049-052-054-088>092-230800-
WEST TENNESSEE

CITY           SKY/WX    TMP DP  RH WIND       PRES   REMARKS
MEMPHIS INTL   FOG       59  59 100 W12       29.79S VSB 1/2
NWS MEMPHIS      N/A     58 N/A N/A MISG        N/A
JACKSON        CLOUDY    58  58 100 NW3       29.75F FOG
DYERSBURG      RAIN      57  56  96 N3        29.77F
$$

TNZ008-025-027-028-033-062-065-066-230800-
NORTH MIDDLE TENNESSEE

CITY           SKY/WX    TMP DP  RH WIND       PRES   REMARKS
NASHVILLE      CLOUDY    58  55  90 E16G28    29.84F
CLARKSVILLE    CLOUDY    58  53  84 E15G30    29.82F
SMYRNA         CLOUDY    58  55  90 E14       29.86F
CROSSVILLE     LGT RAIN  53  50  89 SE12G20   29.99F
$$

TNZ061-075-076-078-094-096-097-230800-
SOUTH MIDDLE TENNESSEE

CITY           SKY/WX    TMP DP  RH WIND       PRES   REMARKS
$$

TNZ017-018-042-046-047-230800-
NORTHEAST TENNESSEE

CITY           SKY/WX    TMP DP  RH WIND       PRES   REMARKS
TRI CITIES     CLOUDY    59  48  67 E12G18    30.13F
$$

TNZ012-013-036-069-073-074-230800-
CENTRAL EAST TENNESSEE

CITY           SKY/WX    TMP DP  RH WIND       PRES   REMARKS
KNOXVILLE      LGT RAIN  56  53  90 NE8       30.00F
OAK RIDGE      LGT RAIN  55  55 100 CALM      30.03F
$$

TNZ083-085-099-230800-
SOUTHEAST TENNESSEE

CITY           SKY/WX    TMP DP  RH WIND       PRES   REMARKS
CHATTANOOGA    LGT RAIN  58  55  90 S3        29.96S FOG
$$

SKY/WX REPORTED AS FAIR MEANS FEW OR NO CLOUDS BELOW
12 THOUSAND FEET.





USA.gov is the U.S. government's official web portal to all federal, state and local government web resources and services.